User: anonymous   Login
Location: Newark
(49.8348°N, 24.0280°E)
Time: 07:39:57
(UTC+00:00)
Language:

Vanguard 2 Rocket - Orbit

View from above orbital plane
View from above orbital plane
View from above satellite
View from above satellite

Ground track
Ground track

The orbit data is extracted from the following two-line orbital elements,

1    12U 59001B   20028.70622610 -.00000072 +00000-0 -35530-4 0  9995
2    12 032.8982 123.3687 1666471 055.9926 318.7967 11.44311000263854
Epoch (UTC): 28 January 2020 16:56:57
Eccentricity: 0.1666471
inclination: 32.8982°
perigee height: 554 km
apogee height: 3326 km
right ascension of ascending node: 123.3687°
argument of perigee: 55.9926°
revolutions per day: 11.44311000
mean anomaly at epoch: 318.7967°
orbit number at epoch: 26385

The dashed part of the orbit path shows where the satellite is in the earth's shadow,  

DLR